www.pogodaiklimat.ru

Погода и климат >> Архив погоды >> Венгрия >> Kecskemet


ПОГОДА в Kecskemet

  • Прогноз погоды в Kecskemet
  • Монитор погоды в Kecskemet
  • Климат города

АРХИВ ПОГОДЫ в Kecskemet

Время (UTC), дата Ветер
(напр.,м/с)
 
Видим.   Явления Облачность Т
(С)
Тd
(С)
f
(%)
Тe
(С)
Тes
(С)
Комфортность P
(гПа)
Po
(гПа)
Тmin
(С)
Tmax
(С)
R
(мм)
R24
(мм)
S
(см)
14 9.10 СВ 3 30 км ясно +23.1 +11.2 47 +25 +27 комфорт 1023.0 1009.7
13 9.10 С 3 30 км ясно +23.0 +10.7 46 +25 +29 комфорт 1023.2 1009.9
15 9.10 СВ 3 30 км ясно +22.7 +11.1 48 +25 +25 комфорт 1023.0 1009.7
16 9.10 СВ 1 30 км ясно +20.1 +12.6 62 +23 +23 комфорт 1023.4 1009.9
17 9.10 штиль 0 15 км ясно +15.7 +12.8 83 +15 +15 1023.7 1010.0
18 9.10 штиль 0 10 км ясно +13.8 +12.4 91 +13 +13 1024.2 1010.4 +23.4 0
20 9.10 штиль 0 7000 м ясно +11.0 +10.8 99 +10 +10 1024.7 1010.8
19 9.10 штиль 0 8000 м ясно +12.3 +11.5 95 +12 +12 1024.4 1010.6
21 9.10 С 1 6000 м ясно +9.9 +9.7 99 +9 +9 1025.4 1011.4
22 9.10 СЗ 1 6000 м ясно +10.4 +9.6 95 +10 +10 1025.3 1011.4
23 9.10 нст 1 6000 м ясно +9.4 +9.4 100 +9 +9 1025.5 1011.5
00 10.10 штиль 0 н/о н/о +8.6 +8.3 98 +8 +8 1025.5 1011.3
02 10.10 штиль 0 н/о н/о +8.5 +8.5 100 +7 +7 1025.8 1011.5
01 10.10 штиль 0 н/о н/о +8.3 +8.3 100 +7 +7 1025.7 1011.4
03 10.10 штиль 0 н/о н/о +7.1 +7.1 100 +6 +6 1025.9 1011.6
04 10.10 штиль 0 н/о н/о +7.7 +7.7 100 +7 +7 1025.9 1011.6
05 10.10 штиль 0 н/о н/о +6.0 +6.0 100 +5 +5 1026.1 1011.7
06 10.10 С 1 н/о н/о +6.6 +6.6 100 +5 +5 1026.6 1012.2 +5.3
08 10.10 В 1 6000 м 1/0
[Ac cast Ci sp]
+15.8 +10.8 72 +17 +20 1026.6 1012.9
07 10.10 С 1 н/о н/о +11.5 +11.0 97 +11 +11 1026.6 1012.5
09 10.10 нст 1 8000 м 1/0
[Ci sp]
+19.6 +11.1 58 +22 +28 комфорт 1026.5 1013.0
10 10.10 нст 1 8000 м 1/0
[Ci sp]
+22.7 +10.5 46 +25 +32 комфорт 1026.3 1012.9
11 10.10 нст 2 10 км 3/0
[Ci sp]
+23.1 +10.2 44 +25 +32 комфорт 1025.8 1012.4
12 10.10 ЮВ 2 10 км 3/1 1500 м
[Cu hum Ci sp]
+23.9 +9.8 41 +25 +30 комфорт 1025.1 1011.8
14 10.10 В 3 20 км 3/1 1500 м
[Cu hum Ci sp]
+24.1 +8.5 37 +25 +26 комфорт 1024.2 1010.9
13 10.10 СВ 2 15 км 1/1 1500 м
[Cu hum Ci sp]
+24.2 +9.4 39 +25 +29 комфорт 1024.7 1011.4
15 10.10 СВ 3 20 км 1/1 2000 м
[Sc diur, vesp Ci sp]
+23.5 +9.5 41 +24 +25 комфорт 1024.0 1010.7
16 10.10 СВ 1 н/о н/о +19.9 +10.6 55 +22 +22 комфорт 1024.1 1010.4
17 10.10 штиль 0 15 км 1/0
[Ci sp]
+16.2 +11.1 72 +16 +16 1024.6 1010.9
18 10.10 СВ 1 н/о н/о +14.3 +10.7 79 +15 +15 1024.7 1010.7 +24.4
20 10.10 штиль 0 10 км ясно +12.9 +9.3 79 +12 +12 1025.1 1011.3
19 10.10 СВ 2 10 км ясно +12.9 +9.2 78 +12 +12 1024.9 1011.1
21 10.10 штиль 0 8000 м ясно +11.1 +8.7 85 +10 +10 1025.0 1011.1
22 10.10 СВ 1 8000 м ясно +10.7 +8.6 87 +10 +10 1025.0 1011.1
23 10.10 СВ 1 8000 м ясно +10.8 +8.7 87 +10 +10 1025.0 1011.1
00 11.10 штиль 0 н/о н/о +9.8 +7.1 83 +9 +9 1025.1 1010.9
02 11.10 штиль 0 8000 м ясно +10.4 +9.2 92 +10 +10 1024.7 1010.8
01 11.10 штиль 0 8000 м ясно +10.4 +8.5 88 +10 +10 1024.8 1010.9
03 11.10 С 1 7000 м ясно +10.1 +8.9 92 +10 +10 1024.6 1010.6
04 11.10 СЗ 1 6000 м ясно +8.2 +7.6 96 +7 +7 1024.5 1010.5
05 11.10 штиль 0 4000 м местами туман поземный ясно +8.2 +7.9 98 +7 +7 1024.8 1010.8
06 11.10 СВ 1 4000 м дымка ясно +9.0 +8.5 97 +8 +8 1025.4 1011.4 +7.0 0
08 11.10 В 2 8000 м ясно +15.4 +10.0 70 +15 +19 1025.7 1012.0
07 11.10 В 2 7000 м ясно +12.5 +9.7 83 +12 +13 1025.5 1011.7
09 11.10 ЮВ 2 10 км ясно +18.0 +9.9 59 +19 +24 1025.6 1012.0
10 11.10 Ю 2 10 км ясно +20.4 +9.9 51 +23 +29 комфорт 1025.2 1011.7
11 11.10 Ю 1 10 км ясно +22.2 +10.3 47 +24 +32 комфорт 1024.5 1011.1
12 11.10 Ю 2 10 км ясно +23.0 +9.7 43 +25 +31 комфорт 1024.0 1010.7
14 11.10 ЮВ 2 10 км ясно +23.2 +8.8 40 +25 +27 комфорт 1023.4 1010.1
13 11.10 ЮВ 2 10 км ясно +23.6 +8.8 39 +24 +29 комфорт 1023.8 1010.5
15 11.10 ЮВ 2 10 км ясно +22.7 +8.8 41 +24 +25 комфорт 1023.2 1009.9
16 11.10 В 1 10 км ясно +19.9 +10.0 53 +22 +22 комфорт 1023.6 1010.1
17 11.10 В 2 10 км ясно +15.9 +10.2 69 +16 +16 1024.2 1010.5
18 11.10 штиль 0 10 км ясно +14.3 +10.1 76 +14 +14 1024.5 1010.8 +23.8 0
20 11.10 штиль 0 н/о н/о +11.6 +9.3 86 +11 +11 1025.3 1011.2
19 11.10 штиль 0 н/о н/о +12.7 +9.9 83 +12 +12 1024.9 1010.9
21 11.10 штиль 0 7000 м ясно +10.3 +9.8 97 +9 +9 1025.8 1011.8
22 11.10 штиль 0 7000 м ясно +9.5 +8.4 93 +9 +9 1026.2 1012.2
23 11.10 штиль 0 6000 м ясно +9.1 +9.0 99 +8 +8 1026.4 1012.4
00 12.10 штиль 0 н/о н/о +8.4 +8.3 99 +7 +7 1026.6 1012.3
02 12.10 штиль 0 5000 м местами туман поземный ясно +6.9 +6.9 100 +6 +6 1026.5 1012.4
01 12.10 штиль 0 5000 м местами туман поземный ясно +7.6 +7.5 99 +7 +7 1026.7 1012.6
03 12.10 штиль 0 5000 м местами туман поземный ясно +6.1 +6.1 100 +5 +5 1026.9 1012.7
04 12.10 В 2 3000 м местами туман поземный ясно +6.4 +6.3 99 +4 +4 1027.3 1013.1
05 12.10 СВ 2 н/о н/о +7.0 +6.7 98 +5 +5 1027.7 1013.3
06 12.10 В 1 2000 м местами туман поземный ясно +7.9 +7.8 99 +7 +7 1028.6 1014.5 +6.0 0
08 12.10 В 1 7000 м ясно +15.9 +9.3 65 +17 +21 1028.9 1015.2
07 12.10 В 1 3000 м дымка ясно +11.9 +9.3 84 +12 +14 1028.9 1015.0
09 12.10 В 2 10 км ясно +18.3 +8.8 54 +19 +24 1029.2 1015.6
10 12.10 СВ 1 20 км ясно +19.8 +8.5 48 +22 +30 комфорт 1029.1 1015.5
11 12.10 В 1 15 км ясно +21.6 +8.1 42 +23 +31 комфорт 1028.6 1015.1
12 12.10 СВ 3 20 км ясно +21.5 +8.0 42 +23 +27 комфорт 1028.1 1014.6
14 12.10 СВ 2 20 км ясно +22.1 +8.2 41 +23 +25 комфорт 1027.6 1014.2
13 12.10 СВ 1 20 км ясно +22.2 +8.7 42 +24 +28 комфорт 1027.6 1014.2
15 12.10 С 1 20 км ясно +21.7 +8.2 42 +23 +24 комфорт 1027.4 1014.0
16 12.10 штиль 0 30 км ясно +17.9 +10.5 62 +18 +18 1027.6 1014.0
17 12.10 штиль 0 10 км ясно +14.4 +10.0 75 +14 +14 1028.0 1014.2
18 12.10 штиль 0 10 км ясно +12.6 +10.0 84 +12 +12 1028.2 1014.3 +22.5 0
20 12.10 штиль 0 10 км ясно +9.4 +8.8 96 +8 +8 1028.9 1014.9
19 12.10 СЗ 2 10 км ясно +10.7 +9.1 90 +9 +9 1028.5 1014.5
21 12.10 СЗ 2 10 км ясно +9.7 +8.6 93 +8 +8 1029.1 1015.1
22 12.10 СЗ 1 10 км ясно +8.5 +8.4 99 +8 +8 1029.2 1015.1
23 12.10 СЗ 1 10 км ясно +8.2 +8.1 99 +7 +7 1029.1 1015.0
00 13.10 штиль 0 н/о н/о +7.2 +6.9 98 +6 +6 1029.3 1014.9
02 13.10 СЗ 1 8000 м ясно +6.4 +6.0 97 +5 +5 1029.3 1015.1
01 13.10 штиль 0 8000 м ясно +6.7 +6.4 98 +6 +6 1029.3 1015.1
03 13.10 СЗ 1 6000 м ясно +6.4 +6.3 99 +5 +5 1029.3 1015.1
04 13.10 штиль 0 4000 м местами туман поземный ясно +5.6 +5.5 99 +4 +4 1029.5 1015.3
05 13.10 штиль 0 2000 м местами туман поземный ясно +5.3 +5.0 98 +4 +4 1029.5 1015.2
06 13.10 В 1 2500 м дымка ясно +7.3 +7.3 100 +6 +6 1029.9 1015.7 +5.1 0
08 13.10 ЮВ 1 6000 м ясно +14.7 +8.4 66 +15 +19 1029.9 1016.1
07 13.10 штиль 0 4000 м дымка ясно +11.0 +8.0 82 +10 +12 1029.9 1015.9
09 13.10 нст 1 8000 м ясно +18.2 +9.3 56 +19 +26 1029.6 1016.0
10 13.10 нст 1 10 км ясно +20.7 +8.7 46 +23 +31 комфорт 1029.5 1016.0
11 13.10 нст 1 10 км ясно +21.6 +9.1 45 +23 +31 комфорт 1028.9 1015.4
12 13.10 ЮВ 1 10 км ясно +22.6 +7.9 39 +24 +30 комфорт 1028.2 1014.8
14 13.10 СВ 1 15 км ясно +22.8 +7.7 38 +24 +26 комфорт 1027.0 1013.6
13 13.10 нст 1 10 км ясно +22.6 +8.3 40 +24 +29 комфорт 1027.7 1014.3
15 13.10 СВ 2 15 км ясно +22.2 +7.6 39 +23 +24 комфорт 1026.7 1013.3
16 13.10 С 1 15 км 1/0
[Ci sp]
+17.7 +10.1 61 +19 +19 1026.9 1013.3
17 13.10 штиль 0 10 км 1/0
[Ci sp]
+15.0 +9.4 69 +15 +15 1026.9 1013.2
18 13.10 С 1 10 км ясно +12.4 +9.2 81 +12 +12 1027.1 1013.2 +23.1 0
20 13.10 СЗ 1 10 км ясно +10.5 +8.4 87 +10 +10 1027.0 1013.0
19 13.10 С 1 10 км ясно +10.8 +8.2 84 +10 +10 1026.8 1012.9
21 13.10 штиль 0 8000 м ясно +8.7 +7.2 90 +8 +8 1026.9 1012.8
22 13.10 С 1 8000 м ясно +7.1 +6.0 93 +6 +6 1026.7 1012.6
23 13.10 С 1 8000 м ясно +7.7 +7.1 96 +7 +7 1027.0 1012.9
00 14.10 ЮЗ 3 н/о н/о +8.6 +7.7 94 +6 +6 1027.3 1013.0
02 14.10 штиль 0 6000 м ясно +6.2 +6.1 99 +5 +5 1027.1 1012.9
01 14.10 СЗ 1 7000 м ясно +6.9 +5.8 93 +6 +6 1027.2 1013.1
03 14.10 штиль 0 6000 м местами туман поземный ясно +5.8 +5.7 99 +5 +5 1027.0 1012.8
04 14.10 штиль 0 5000 м местами туман поземный ясно +5.4 +5.3 99 +4 +4 1027.0 1012.8
05 14.10 В 1 4000 м местами туман поземный ясно +4.7 +4.6 99 +3 +3 1027.0 1012.7
06 14.10 штиль 0 4000 м дымка ясно +5.8 +5.2 96 +5 +5 1026.9 1012.7 +4.5 0
08 14.10 В 2 10 км ясно +14.6 +7.2 61 +14 +18 1026.8 1013.0
07 14.10 штиль 0 8000 м ясно +10.2 +7.1 81 +10 +11 1027.0 1013.0
09 14.10 ЮВ 5 15 км ясно +17.6 +2.7 37 +17 +20 1026.6 1013.0
10 14.10 Ю 4 15 км ясно +19.9 +1.3 29 +20 +24 1026.3 1012.8
11 14.10 ЮВ 3 20 км ясно +20.7 +2.0 29 +21 +27 комфорт 1025.7 1012.2
12 14.10 В 4 30 км ясно +21.4 +3.1 30 +21 +25 комфорт 1024.8 1011.4
14 14.10 ЮВ 4 30 км ясно +21.8 +5.2 34 +22 +24 комфорт 1023.8 1010.4
13 14.10 В 3 30 км ясно +21.2 +3.4 31 +21 +25 комфорт 1024.2 1010.8
15 14.10 ЮВ 4 30 км ясно +20.9 +5.3 36 +22 +22 комфорт 1023.4 1010.0
16 14.10 В 2 15 км 1/0
[Ci sp]
+18.4 +6.2 45 +19 +19 1023.4 1009.9
17 14.10 штиль 0 10 км 1/0
[Ci sp]
+13.5 +7.0 65 +13 +13 1023.8 1010.0
18 14.10 В 1 10 км ясно +12.2 +6.5 68 +12 +12 1023.7 1009.9 +22.1 0
20 14.10 С 2 8000 м ясно +8.6 +5.9 83 +7 +7 1024.3 1010.3
19 14.10 Ю 2 10 км ясно +11.7 +6.8 72 +11 +11 1024.0 1010.1
21 14.10 ЮВ 1 8000 м ясно +7.9 +5.5 85 +7 +7 1024.7 1010.6
22 14.10 штиль 0 н/о н/о +6.8 +4.5 85 +6 +6 1024.7 1010.4
23 14.10 штиль 0 8000 м ясно +6.3 +5.3 93 +5 +5 1024.7 1010.6
00 15.10 В 1 н/о н/о +6.0 +4.6 91 +5 +5 1025.0 1010.6
02 15.10 штиль 0 8000 м ясно +4.7 +3.8 94 +4 +4 1024.8 1010.6
01 15.10 штиль 0 8000 м ясно +5.1 +4.4 95 +4 +4 1025.1 1010.9
03 15.10 СВ 1 8000 м ясно +4.8 +3.9 94 +3 +3 1024.8 1010.6
04 15.10 штиль 0 8000 м ясно +4.4 +3.7 95 +3 +3 1024.8 1010.6
05 15.10 штиль 0 6000 м местами туман поземный ясно +3.4 +3.1 98 +2 +2 1025.0 1010.7
06 15.10 С 1 6000 м ясно +5.6 +4.9 95 +4 +4 1025.1 1010.9 +3.1 0
08 15.10 В 2 10 км ясно +13.9 +6.3 60 +14 +17 1024.9 1011.1
07 15.10 СВ 1 8000 м ясно +9.9 +6.6 80 +9 +11 1025.0 1011.0
09 15.10 В 3 15 км ясно +17.3 +2.1 36 +17 +21 1024.7 1011.1
10 15.10 ЮВ 3 30 км ясно +19.2 +0.2 28 +20 +25 1024.3 1010.8
11 15.10 В 3 30 км ясно +20.1 +1.5 29 +21 +26 комфорт 1023.6 1010.1
12 15.10 В 3 30 км ясно +21.3 +1.5 27 +21 +26 комфорт 1022.9 1009.5
14 15.10 В 3 30 км ясно +21.4 +0.6 25 +21 +23 комфорт 1022.3 1008.9
13 15.10 ЮВ 3 30 км ясно +21.4 +0.6 25 +21 +24 комфорт 1022.6 1009.2
15 15.10 В 2 30 км 1/0
[Ci sp]
+20.8 +1.1 27 +22 +22 комфорт 1022.1 1008.7
16 15.10 штиль 0 30 км 1/0
[Ci sp]
+16.1 +4.2 45 +16 +16 1022.4 1008.8
17 15.10 штиль 0 15 км 1/0
[Ci sp]
+11.8 +3.3 56 +12 +12 1022.7 1008.9
18 15.10 штиль 0 20 км 1/0
[Ci sp]
+10.2 +3.7 64 +10 +10 1022.8 1008.9 +21.8 0
20 15.10 штиль 0 20 км ясно +7.2 +3.3 76 +6 +6 1023.4 1009.3
19 15.10 штиль 0 20 км ясно +8.8 +3.8 71 +8 +8 1023.0 1009.0
21 15.10 штиль 0 15 км ясно +7.1 +3.0 75 +6 +6 1023.6 1009.5
22 15.10 штиль 0 15 км ясно +6.0 +3.8 86 +5 +5 1023.8 1009.7
23 15.10 штиль 0 15 км ясно +5.4 +3.7 89 +4 +4 1024.0 1009.8
00 16.10 С 1 10 км ясно +5.0 +2.9 86 +4 +4 1024.0 1009.8
02 16.10 штиль 0 10 км 1/0
[Ci sp]
+4.4 +2.3 86 +3 +3 1023.7 1009.5
01 16.10 штиль 0 10 км ясно +4.4 +2.6 88 +3 +3 1023.9 1009.7
03 16.10 штиль 0 8000 м 1/0
[Ci sp]
+3.9 +2.3 89 +3 +3 1023.6 1009.4
04 16.10 СВ 2 8000 м 1/0
[Ci sp]
+3.7 +2.5 92 +1 +1 1023.8 1009.5
05 16.10 С 1 8000 м 1/0
[Ci sp]
+3.6 +1.6 87 +2 +2 1023.8 1009.5
06 16.10 штиль 0 8000 м 1/0
[Ci sp]
+3.6 +2.0 89 +3 +3 1024.1 1009.8 +1.5 0
08 16.10 В 2 10 км 3/0
[Ci sp]
+13.1 +4.0 54 +13 +16 1024.4 1010.6
07 16.10 СВ 2 10 км 3/0
[Ci sp]
+8.9 +3.9 71 +7 +9 1024.2 1010.2
09 16.10 ЮВ 2 15 км 3/0
[Ci sp]
+17.2 +4.2 42 +18 +22 1024.1 1010.5
10 16.10 ЮВ 4 20 км 3/0
[Ci sp]
+18.8 +3.4 36 +19 +23 1023.9 1010.4
11 16.10 ЮВ 3 20 км 3/0
[Ci sp]
+21.2 +3.4 31 +21 +26 комфорт 1023.4 1010.0

 

Местоположение метеостанции Kecskemet (Венгрия): широта 46.92 долгота 19.75 высота над уровнем моря 123 м.

В архиве по умолчанию представлена погода в Kecskemet за последнюю неделю. Архивные данные за месяц целиком и за предыдущие месяцы, начиная с января 2011 года, Вы можете получить, выбрав интересующий диапазон дат из раскрывающегося списка и нажав кнопку "Ввод!".


*Определитесь, кто Вы:
робот инопланетянин человек

Внимание! Время в таблицах - всемирное. Для получения местного времени необходимо прибавить поправку, которая в Kecskemet равна 1 ч.

Смотрите также архив погоды в соседних городах и на ближайших метеорологических станциях:

Погода в Szolnok (Венгрия) (43 км)
Погода в Budapest (Венгрия) (71 км)
Погода в Paks (Венгрия) (78 км)
Погода в Szeged (Венгрия) (79 км)
Погода в Agard (Венгрия) (90 км)
Погода в Palic (Сербия) (91 км)
Погода в Baja (Венгрия) (99 км)
Погода в Poroszlo (Венгрия) (105 км)
Погода в Kekesteto (Венгрия) (108 км)
Погода в Bekescsaba (Венгрия) (111 км)

Пояснения к столбцам:

Ветер - указаны скорость ветра в м/с - средняя за 10 мин, порывы в срок и между сроками (в фигурных скобках) и направление, откуда дует ветер: С - северный, СВ - северо-восточный, В - восточный, ЮВ - юго-восточный, Ю - южный, ЮЗ - юго-западный, З - западный, СЗ - северо-западный.
Видимость - горизонтальная дальность видимости в метрах или километрах. При видимости от 1 до 10 км при отсутствии осадков обычно наблюдается дымка, при ухудшении видимости до 1 км и менее - туман. В сухую погоду видимость может ухудшаться дымом, пылью или мглою.
Явления - указаны атмосферные явления, наблюдавшиеся в срок или в последний час перед сроком; фигурными скобками обозначены явления, наблюдавшиеся между сроками (за 1-3 часа до срока); квадратными скобками обозначены град или гололедные отложения с указанием их диаметра в мм.
Облачность - указаны через наклонную черту общая и нижняя облачность в баллах и высота нижней границы облаков в метрах; квадратными скобками обозначены формы облаков: Ci - перистые, Cs - перисто-слоистые, Cc - перисто-кучевые, Ac - высококучевые, As - высокослоистые, Sc - слоисто-кучевые, Ns - слоисто-дождевые, Cu - кучевые, Cb - кучево-дождевые. Подробнее классификацию облаков см. в Атласе облаков (PDF).
T - Температура воздуха - температура, измеренная на высоте 2 м над землей.
Td - Температура точки росы - температура, при понижении до которой содержащийся в воздухе водяной пар достигнет насыщения.
f - Относительная влажность воздуха - влажноcть воздуха, измеренная на высоте 2 м над землей.
Te - Эффективная температура - температура, которую ощущает одетый по сезону человек в тени. Характеристика душности погоды. При расчете учитывается влияние влажности воздуха и скорости ветра на теплоощущения человека.
Tes - Эффективная температура на солнце - температура, которую ощущает человек, с поправкой на солнечный нагрев. Характеристика знойности погоды. Зависит от высоты солнца над горизонтом, облачности и скорости ветра. Ночью, в пасмурную погоду, а также при ветре 12 м/с и более поправка равна нулю.
P - Атмосферное давление - приведенное к уровню моря атмосферное давление.
Po - Атмосферное давление - измеренное на уровне метеостанции атмосферное давление.
Tmin - Минимальная температура - минимум температуры воздуха на высоте 2 м над землей.
Tmax - Максимальная температура - максимум температуры воздуха на высоте 2 м над землей.
R - Количество осадков - Количество выпавших осадков за период времени, мм. При наведении курсора мыши на число - период времени, за который выпало указанное количество осадков.
R24 - Количество осадков - Количество выпавших осадков за 24 часа, мм.
S - Снежный покров - Высота снежного покрова, см. При наведении курсора мыши на число - состояние снежного покрова и степень покрытия местности в баллах.